Date String (YYYY-MM-DD hh:mm:ss) UTC,Instrument flags,Ambient pressure (hPa),Sample flow (lpm),Bypass flow (lpm),Sample temperature (°C),Ambient temperature (°C),ASC tube jacket temperature (°C),LED temperature (°C),Box temperature (°C),Sample RH (%),Span deviation,Mass concentration (μg/m³),Mass concentration (μg/m³),Mass concentration (μg/m³)
DateTimeUTC,F1_M11,P_M11,Q1_M11,Q2_M11,T1_M11,T2_M11,T3_M11,T4_M11,T5_M11,U1_M11,ZSPAN_M11,X0_M11,X2_M11,X1_M11
2023-02-11 23:00:00,,0822.4,5.00,0.00,26.5,25.3,00.0,35.3,28.4,11.5,0000.0,0018.02,0010.21,0009.33
2023-02-11 23:01:00,,0822.4,4.99,0.00,26.6,25.3,00.0,35.3,28.4,11.6,0000.0,0017.84,0010.23,0009.34
2023-02-11 23:02:00,,0822.4,5.03,0.00,26.6,25.3,00.0,35.3,28.4,11.7,0000.0,0018.40,0010.22,0009.35
2023-02-11 23:03:00,,0822.4,5.01,0.00,26.6,25.3,00.0,35.3,28.4,11.7,0000.0,0018.25,0010.21,0009.36
2023-02-11 23:04:00,,0822.4,4.99,0.00,26.6,25.3,00.0,35.3,28.4,11.3,0000.0,0017.77,0010.22,0009.34
2023-02-11 23:05:00,,0822.4,4.99,0.00,26.6,25.3,00.0,35.3,28.4,11.0,0000.0,0017.45,0010.18,0009.30
2023-02-11 23:06:00,,0822.4,5.00,0.00,26.6,25.3,00.0,35.4,28.4,11.2,0000.0,0016.81,0010.08,0009.24
2023-02-11 23:07:00,,0822.4,5.01,0.00,26.6,25.3,00.0,35.4,28.5,11.3,0000.0,0016.90,0010.03,0009.19
2023-02-11 23:08:00,,0822.4,4.99,0.00,26.6,25.3,00.0,35.4,28.5,11.6,0000.0,0017.89,0010.05,0009.20
2023-02-11 23:09:00,,0822.4,5.02,0.00,26.6,25.3,00.0,35.4,28.5,11.6,0000.0,0018.31,0010.05,0009.22
2023-02-11 23:10:00,,0822.4,5.00,0.00,26.6,25.3,00.0,35.4,28.5,11.7,0000.0,0018.27,0010.09,0009.24
2023-02-11 23:11:00,,0822.3,5.00,0.00,26.6,25.3,00.0,35.4,28.5,11.7,0000.0,0018.54,0010.09,0009.26
2023-02-11 23:12:00,,0822.4,4.99,0.00,26.6,25.3,00.0,35.4,28.5,11.7,0000.0,0019.58,0010.09,0009.30
2023-02-11 23:13:00,,0822.4,5.03,0.00,26.6,25.3,00.0,35.4,28.5,11.7,0000.0,0018.98,0010.14,0009.35
2023-02-11 23:14:00,,0822.4,5.00,0.00,26.6,25.3,00.0,35.4,28.5,11.6,0000.0,0018.82,0010.21,0009.36
2023-02-11 23:15:00,,0822.4,5.01,0.00,26.6,25.3,00.0,35.4,28.5,11.5,0000.0,0018.80,0010.24,0009.38
2023-02-11 23:16:00,,0822.4,4.97,0.00,26.6,25.3,00.0,35.4,28.5,11.6,0000.0,0018.54,0010.32,0009.44
2023-02-11 23:17:00,,0822.4,5.00,0.00,26.6,25.3,00.0,35.4,28.5,11.6,0000.0,0019.49,0010.43,0009.53
2023-02-11 23:18:00,,0822.4,5.01,0.00,26.6,25.3,00.0,35.4,28.5,11.6,0000.0,0020.04,0010.53,0009.58
2023-02-11 23:19:00,,0822.4,4.99,0.00,26.6,25.4,00.0,35.4,28.5,11.6,0000.0,0019.26,0010.56,0009.61
2023-02-11 23:20:00,,0822.4,5.00,0.00,26.6,25.4,00.0,35.4,28.5,11.5,0000.0,0019.03,0010.61,0009.64
2023-02-11 23:21:00,,0822.3,5.02,0.00,26.7,25.4,00.0,35.4,28.5,11.4,0000.0,0019.10,0010.61,0009.64
2023-02-11 23:22:00,,0822.4,5.00,0.00,26.7,25.4,00.0,35.4,28.5,11.5,0000.0,0019.18,0010.65,0009.66
2023-02-11 23:23:00,,0822.4,5.00,0.00,26.7,25.4,00.0,35.4,28.5,11.6,0000.0,0018.16,0010.67,0009.67
2023-02-11 23:24:00,,0822.4,5.04,0.00,26.7,25.4,00.0,35.5,28.5,11.5,0000.0,0018.05,0010.65,0009.64
2023-02-11 23:25:00,,0822.3,5.00,0.00,26.7,25.4,00.0,35.5,28.5,11.5,0000.0,0017.77,0010.56,0009.62
2023-02-11 23:26:00,,0822.3,4.99,0.00,26.7,25.4,00.0,35.5,28.5,11.6,0000.0,0017.38,0010.57,0009.64
2023-02-11 23:27:00,,0822.3,5.00,0.00,26.7,25.4,00.0,35.5,28.6,11.5,0000.0,0017.43,0010.62,0009.67
2023-02-11 23:28:00,,0822.3,5.00,0.00,26.7,25.4,00.0,35.5,28.5,11.4,0000.0,0016.39,0010.64,0009.69
2023-02-11 23:29:00,,0822.3,4.99,0.00,26.7,25.4,00.0,35.5,28.5,11.4,0000.0,0016.02,0010.63,0009.71
2023-02-11 23:30:00,,0822.3,5.00,0.00,26.7,25.4,00.0,35.5,28.5,11.4,0000.0,0015.91,0010.64,0009.73
2023-02-11 23:31:00,,0822.2,4.97,0.00,26.7,25.4,00.0,35.5,28.6,11.5,0000.0,0016.44,0010.67,0009.75
2023-02-11 23:32:00,,0822.2,5.01,0.00,26.7,25.4,00.0,35.5,28.6,11.6,0000.0,0016.30,0010.76,0009.83
2023-02-11 23:33:00,,0822.2,5.00,0.00,26.7,25.4,00.0,35.5,28.6,11.6,0000.0,0016.04,0010.80,0009.90
2023-02-11 23:34:00,,0822.2,4.99,0.00,26.7,25.4,00.0,35.5,28.5,11.5,0000.0,0016.10,0010.87,0009.97
2023-02-11 23:35:00,,0822.2,4.97,0.00,26.7,25.4,00.0,35.5,28.5,11.5,0000.0,0016.13,0010.93,0010.07
2023-02-11 23:36:00,,0822.1,4.98,0.00,26.7,25.4,00.0,35.5,28.6,11.5,0000.0,0017.36,0011.09,0010.18
2023-02-11 23:37:00,,0822.1,5.00,0.00,26.7,25.4,00.0,35.5,28.5,11.5,0000.0,0017.69,0011.18,0010.27
2023-02-11 23:38:00,,0822.1,4.99,0.00,26.7,25.4,00.0,35.5,28.6,11.5,0000.0,0017.82,0011.22,0010.34
2023-02-11 23:39:00,,0822.1,4.99,0.00,26.7,25.4,00.0,35.5,28.6,11.3,0000.0,0019.01,0011.35,0010.44
2023-02-11 23:40:00,,0822.1,4.99,0.00,26.7,25.4,00.0,35.5,28.6,11.3,0000.0,0019.26,0011.47,0010.55
2023-02-11 23:41:00,,0822.1,5.02,0.00,26.7,25.4,00.0,35.5,28.5,11.3,0000.0,0019.36,0011.56,0010.64
2023-02-11 23:42:00,,0822.1,4.99,0.00,26.7,25.4,00.0,35.5,28.6,11.3,0000.0,0018.78,0011.60,0010.71
2023-02-11 23:43:00,,0822.1,5.01,0.00,26.7,25.4,00.0,35.5,28.5,11.3,0002.3,0018.88,0011.64,0010.76
2023-02-11 23:44:00,,0822.1,5.01,0.00,26.7,25.4,00.0,35.5,28.5,11.3,0001.8,0019.40,0011.66,0010.76
2023-02-11 23:45:00,,0822.1,4.97,0.00,26.7,25.4,00.0,35.5,28.6,11.1,0000.7,0019.37,0011.62,0010.74
2023-02-11 23:46:00,,0822.1,5.01,0.00,26.7,25.4,00.0,35.5,28.5,11.0,0000.0,0019.32,0011.53,0010.69
2023-02-11 23:47:00,,0822.1,5.00,0.00,26.7,25.4,00.0,35.5,28.5,11.0,0000.0,0019.38,0011.46,0010.63
2023-02-11 23:48:00,,0822.1,5.00,0.00,26.7,25.4,00.0,35.5,28.5,11.3,0000.1,0019.09,0011.43,0010.61
2023-02-11 23:49:00,,0822.1,5.01,0.00,26.7,25.4,00.0,35.5,28.6,11.3,0000.4,0019.95,0011.44,0010.61
2023-02-11 23:50:00,,0822.1,4.98,0.00,26.7,25.4,00.0,35.5,28.5,11.3,0001.2,0019.36,0011.42,0010.59
2023-02-11 23:51:00,,0822.1,5.01,0.00,26.7,25.4,00.0,35.5,28.5,11.2,0002.8,0019.33,0011.43,0010.57
2023-02-11 23:52:00,,0822.0,5.00,0.00,26.7,25.4,00.0,35.5,28.5,11.1,0003.0,0019.53,0011.42,0010.55
2023-02-11 23:53:00,,0822.0,5.02,0.00,26.7,25.4,00.0,35.5,28.6,11.0,0003.3,0019.64,0011.38,0010.50
2023-02-11 23:54:00,,0821.9,4.98,0.00,26.7,25.4,00.0,35.5,28.5,10.7,0003.8,0019.23,0011.26,0010.38
2023-02-11 23:55:00,,0821.9,5.01,0.00,26.7,25.4,00.0,35.5,28.5,10.4,0003.3,0018.45,0011.12,0010.23
2023-02-11 23:56:00,,0822.1,5.00,0.00,26.7,25.4,00.0,35.5,28.5,10.3,0003.9,0018.54,0010.99,0010.11
2023-02-11 23:57:00,,0822.4,5.00,0.00,26.7,25.4,00.0,35.5,28.5,10.3,0003.7,0018.39,0010.89,0010.00
2023-02-11 23:58:00,,0822.1,4.98,0.00,26.7,25.4,00.0,35.5,28.5,10.3,0002.9,0017.23,0010.79,0009.92
2023-02-11 23:59:00,,0822.2,5.00,0.00,26.7,25.4,00.0,35.5,28.6,10.2,0000.0,0017.57,0010.62,0009.78
